Location: Chemnitz
(49.5500°N, 11.5830°E)
Time: 07:15:57
(UTC+02:00)

ISS - Visible Passes

Search period start: 09 May 2021 00:00
Search period end: 19 May 2021 00:00
Orbit: 418 x 421 km, 51.6° (Epoch: 08 May)

Date Brightness Start Highest point End Pass type
(mag) Time Alt. Az. Time Alt. Az. Time Alt. Az.
09 May -2.4 02:03:26 34° E 02:03:26 34° E 02:05:29 10° ENE visible
09 May -3.2 03:36:22 15° W 03:39:02 58° N 03:42:23 10° ENE visible
10 May -1.2 01:17:26 14° ENE 01:17:26 14° ENE 01:18:01 10° ENE visible
10 May -3.3 02:50:22 36° WNW 02:51:32 62° N 02:54:54 10° ENE visible
10 May -3.5 04:25:11 10° WNW 04:28:34 72° NNE 04:31:57 10° E visible
11 May -3.4 02:04:21 65° NNE 02:04:21 65° NNE 02:07:27 10° ENE visible
11 May -3.3 03:37:44 10° WNW 03:41:05 63° N 03:44:27 10° E visible
12 May -2.1 01:18:16 28° ENE 01:18:16 28° ENE 01:20:00 10° ENE visible
12 May -3.2 02:51:12 17° WNW 02:53:36 58° N 02:56:57 10° E visible
12 May -3.8 04:27:08 10° WNW 04:30:31 71° SSW 04:33:53 10° ESE visible
13 May -1.2 00:32:06 13° ENE 00:32:06 13° ENE 00:32:34 10° ENE visible
13 May -3.2 02:05:01 37° WNW 02:06:06 58° N 02:09:27 10° ENE visible
13 May -3.8 03:39:41 10° WNW 03:43:05 88° NNE 03:46:29 10° ESE visible
14 May -3.3 01:18:38 62° N 01:18:38 62° N 01:21:58 10° ENE visible
14 May -3.6 02:52:15 10° WNW 02:55:38 72° NNE 02:59:00 10° E visible
14 May -3.2 04:29:11 10° W 04:32:19 36° SSW 04:35:27 10° SE visible
14 May -3.3 22:51:17 10° SW 22:54:24 38° SSE 22:55:39 27° ESE visible
15 May -3.6 00:27:45 10° W 00:31:07 70° NNW 00:34:30 10° ENE visible
15 May -3.3 02:04:47 10° WNW 02:08:09 63° N 02:11:31 10° E visible
15 May -3.6 03:41:40 10° WNW 03:44:58 51° SSW 03:48:15 10° SE visible
15 May -2.8 22:04:14 10° SSW 22:07:06 26° SE 22:09:58 10° E visible
15 May -3.8 23:40:17 10° WSW 23:43:39 85° NNW 23:47:03 10° ENE visible
16 May -3.2 01:17:18 10° WNW 01:20:39 58° N 01:24:00 10° E visible
16 May -3.9 02:54:11 10° WNW 02:57:34 71° SSW 03:00:56 10° ESE visible
16 May -2.2 04:31:40 10° W 04:33:56 17° SW 04:36:12 10° S visible
16 May -3.9 22:52:52 10° WSW 22:56:13 75° SSE 22:59:36 10° ENE visible
17 May -3.2 00:29:48 10° W 00:33:09 58° N 00:36:30 10° ENE visible
17 May -3.9 02:06:44 10° WNW 02:10:08 88° NNE 02:13:31 10° ESE visible
17 May -2.7 03:43:51 10° W 03:46:39 25° SW 03:49:29 10° SSE visible
17 May -3.7 22:05:31 10° SW 22:08:48 54° SSE 22:12:07 10° ENE visible
17 May -3.3 23:42:17 10° W 23:45:38 62° N 23:49:00 10° ENE visible
18 May -3.6 01:19:17 10° WNW 01:22:40 73° NNE 01:22:55 67° NE visible
18 May -3.5 22:54:47 10° W 22:58:09 70° NNW 23:01:32 10° ENE visible
